When you browse on this site, cookies collect data to enhance your experience and personalize the content and advertising you see.
Visit our Privacy Policy to learn more. By continuing to use the site, you agree to this use of cookies and data.
  • In Österreich
  • Länderverzeichnis
  • Für 7 Tage
  • Wassertemperatur
  • Wetterkarte
  • News
  • Widgets
  • user-avatar
    Anmelden

    Stündliche Wetter Santa Ana Hueytlalpan

    Heute, 6 Dezember, Freitag

    Zeit Temperatur Niederschläge Wind Luftdruck Luftfeuchtigkeit
    00:00 +10°C° 0 mm 1 m/S 588 mmHg 48%
    01:00 +10°C° 0 mm 1 m/S 588 mmHg 44%
    02:00 +10°C° 0 mm 1 m/S 588 mmHg 40%
    03:00 +10°C° 0 mm 1 m/S 588 mmHg 38%
    04:00 +10°C° 0 mm 1 m/S 588 mmHg 37%
    05:00 +9°C° 0 mm 1 m/S 588 mmHg 35%
    06:00 +12°C° 0 mm 1 m/S 589 mmHg 34%
    07:00 +14°C° 0 mm 1 m/S 591 mmHg 32%
    08:00 +15°C° 0 mm 0 m/S 592 mmHg 31%
    09:00 +18°C° 0 mm 1 m/S 593 mmHg 30%
    10:00 +19°C° 0 mm 2 m/S 593 mmHg 28%
    11:00 +20°C° 0 mm 2 m/S 594 mmHg 27%
    12:00 +20°C° 0 mm 3 m/S 593 mmHg 32%
    13:00 +20°C° 0 mm 3 m/S 592 mmHg 37%
    14:00 +19°C° 0 mm 3 m/S 592 mmHg 41%
    15:00 +17°C° 0 mm 2 m/S 591 mmHg 57%
    16:00 +15°C° 0 mm 2 m/S 590 mmHg 72%
    17:00 +12°C° 0 mm 1 m/S 590 mmHg 87%
    18:00 +12°C° 0 mm 1 m/S 590 mmHg 89%
    19:00 +11°C° 0 mm 1 m/S 590 mmHg 91%
    20:00 +10°C° 0 mm 1 m/S 591 mmHg 92%
    21:00 +10°C° 0 mm 1 m/S 590 mmHg 87%
    22:00 +9°C° 0 mm 1 m/S 590 mmHg 83%
    23:00 +8°C° 0 mm 1 m/S 590 mmHg 78%

    Morgen, 7 Dezember, Samstag

    Zeit Temperatur Niederschläge Wind Luftdruck Luftfeuchtigkeit
    00:00 +8°C° 0 mm 1 m/S 590 mmHg 76%
    01:00 +8°C° 0 mm 1 m/S 589 mmHg 75%
    02:00 +7°C° 0 mm 1 m/S 589 mmHg 74%
    03:00 +7°C° 0 mm 1 m/S 589 mmHg 74%
    04:00 +7°C° 0 mm 1 m/S 589 mmHg 74%
    05:00 +7°C° 0 mm 1 m/S 589 mmHg 75%
    06:00 +9°C° 0 mm 1 m/S 590 mmHg 67%
    07:00 +10°C° 0 mm 0 m/S 592 mmHg 59%
    08:00 +12°C° 0 mm 0 m/S 593 mmHg 51%
    09:00 +14°C° 0 mm 1 m/S 593 mmHg 48%
    10:00 +16°C° 0 mm 2 m/S 593 mmHg 45%
    11:00 +17°C° 0 mm 2 m/S 594 mmHg 42%
    12:00 +17°C° 0 mm 2 m/S 593 mmHg 48%
    13:00 +17°C° 0 mm 2 m/S 592 mmHg 54%
    14:00 +17°C° 0 mm 3 m/S 592 mmHg 60%
    15:00 +15°C° 0.1 mm 2 m/S 591 mmHg 71%
    16:00 +14°C° 0.1 mm 2 m/S 590 mmHg 83%
    17:00 +12°C° 0.1 mm 1 m/S 590 mmHg 94%
    18:00 +12°C° 0 mm 1 m/S 590 mmHg 94%
    19:00 +12°C° 0 mm 1 m/S 590 mmHg 94%
    20:00 +12°C° 0 mm 1 m/S 591 mmHg 93%
    21:00 +10°C° 0 mm 0 m/S 590 mmHg 93%
    22:00 +10°C° 0 mm 0 m/S 590 mmHg 93%
    23:00 +9°C° 0 mm 0 m/S 590 mmHg 93%

    übermorgen, 8 Dezember, Sonntag

    Zeit Temperatur Niederschläge Wind Luftdruck Luftfeuchtigkeit
    00:00 +10°C° 0 mm 1 m/S 589 mmHg 92%
    01:00 +9°C° 0 mm 1 m/S 589 mmHg 90%
    02:00 +9°C° 0 mm 1 m/S 588 mmHg 89%
    03:00 +9°C° 0 mm 1 m/S 588 mmHg 86%
    04:00 +9°C° 0 mm 1 m/S 588 mmHg 84%
    05:00 +8°C° 0 mm 1 m/S 587 mmHg 82%
    06:00 +11°C° 0 mm 1 m/S 589 mmHg 74%
    07:00 +13°C° 0 mm 1 m/S 590 mmHg 66%
    08:00 +14°C° 0 mm 0 m/S 592 mmHg 57%
    09:00 +18°C° 0 mm 1 m/S 592 mmHg 52%
    10:00 +19°C° 0 mm 1 m/S 592 mmHg 46%
    11:00 +20°C° 0 mm 2 m/S 592 mmHg 41%
    12:00 +20°C° 0 mm 2 m/S 592 mmHg 44%
    13:00 +20°C° 0 mm 2 m/S 591 mmHg 47%
    14:00 +20°C° 0 mm 2 m/S 590 mmHg 51%
    15:00 +18°C° 0 mm 2 m/S 589 mmHg 62%
    16:00 +16°C° 0 mm 1 m/S 588 mmHg 73%
    17:00 +13°C° 0 mm 0 m/S 587 mmHg 85%
    18:00 +13°C° 0 mm 1 m/S 588 mmHg 81%
    19:00 +13°C° 0 mm 1 m/S 588 mmHg 78%
    20:00 +12°C° 0 mm 1 m/S 588 mmHg 74%
    21:00 +12°C° 0 mm 1 m/S 588 mmHg 70%
    22:00 +12°C° 0 mm 1 m/S 588 mmHg 66%
    23:00 +12°C° 0 mm 2 m/S 587 mmHg 62%

    9 Dezember, Montag

    Zeit Temperatur Niederschläge Wind Luftdruck Luftfeuchtigkeit
    00:00 +10°C° 0 mm 2 m/S 587 mmHg 61%
    01:00 +10°C° 0 mm 2 m/S 587 mmHg 60%
    02:00 +10°C° 0 mm 2 m/S 587 mmHg 59%
    03:00 +10°C° 0 mm 2 m/S 587 mmHg 58%
    04:00 +10°C° 0 mm 2 m/S 587 mmHg 57%
    05:00 +9°C° 0 mm 2 m/S 587 mmHg 56%
    06:00 +12°C° 0 mm 2 m/S 588 mmHg 51%
    07:00 +15°C° 0 mm 2 m/S 589 mmHg 46%
    08:00 +18°C° 0 mm 1 m/S 590 mmHg 41%
    09:00 +20°C° 0 mm 1 m/S 591 mmHg 35%
    10:00 +22°C° 0 mm 1 m/S 591 mmHg 29%
    11:00 +24°C° 0 mm 1 m/S 592 mmHg 23%
    12:00 +24°C° 0 mm 1 m/S 591 mmHg 26%
    13:00 +24°C° 0 mm 1 m/S 590 mmHg 28%
    14:00 +24°C° 0 mm 2 m/S 589 mmHg 30%
    15:00 +21°C° 0 mm 1 m/S 588 mmHg 42%
    16:00 +19°C° 0 mm 1 m/S 587 mmHg 54%
    17:00 +15°C° 0 mm 1 m/S 586 mmHg 66%
    18:00 +15°C° 0 mm 1 m/S 587 mmHg 62%
    19:00 +14°C° 0 mm 1 m/S 587 mmHg 59%
    20:00 +14°C° 0 mm 2 m/S 587 mmHg 55%
    21:00 +14°C° 0 mm 2 m/S 587 mmHg 57%
    22:00 +13°C° 0 mm 2 m/S 587 mmHg 58%
    23:00 +13°C° 0 mm 2 m/S 587 mmHg 60%

    10 Dezember, Dienstag

    Zeit Temperatur Niederschläge Wind Luftdruck Luftfeuchtigkeit
    00:00 +13°C° 0 mm 2 m/S 587 mmHg 60%
    01:00 +13°C° 0 mm 2 m/S 586 mmHg 59%
    02:00 +11°C° 0 mm 3 m/S 586 mmHg 59%
    03:00 +12°C° 0 mm 2 m/S 586 mmHg 59%
    04:00 +12°C° 0 mm 2 m/S 586 mmHg 59%
    05:00 +12°C° 0 mm 2 m/S 587 mmHg 58%
    06:00 +14°C° 0 mm 2 m/S 588 mmHg 55%
    07:00 +16°C° 0 mm 1 m/S 590 mmHg 52%
    08:00 +19°C° 0 mm 1 m/S 591 mmHg 48%
    09:00 +18°C° 0 mm 2 m/S 592 mmHg 48%
    10:00 +19°C° 0 mm 2 m/S 592 mmHg 48%
    11:00 +20°C° 0 mm 3 m/S 592 mmHg 48%
    12:00 +18°C° 0.1 mm 3 m/S 591 mmHg 58%
    13:00 +17°C° 0.1 mm 3 m/S 591 mmHg 67%
    14:00 +16°C° 0.1 mm 3 m/S 590 mmHg 76%
    15:00 +13°C° 0.3 mm 3 m/S 590 mmHg 82%
    16:00 +12°C° 0.3 mm 3 m/S 590 mmHg 88%
    17:00 +12°C° 0.3 mm 2 m/S 590 mmHg 93%
    18:00 +10°C° 0.3 mm 2 m/S 590 mmHg 94%
    19:00 +10°C° 0.3 mm 2 m/S 590 mmHg 94%
    20:00 +9°C° 0.3 mm 2 m/S 591 mmHg 94%
    21:00 +9°C° 0.1 mm 2 m/S 591 mmHg 95%
    22:00 +9°C° 0.1 mm 2 m/S 591 mmHg 95%
    23:00 +9°C° 0.1 mm 2 m/S 591 mmHg 95%

    11 Dezember, Mittwoch

    Zeit Temperatur Niederschläge Wind Luftdruck Luftfeuchtigkeit
    00:00 +9°C° 0.1 mm 2 m/S 591 mmHg 95%
    01:00 +9°C° 0.1 mm 2 m/S 590 mmHg 95%
    02:00 +8°C° 0.1 mm 2 m/S 590 mmHg 96%
    03:00 +8°C° 0.1 mm 2 m/S 590 mmHg 95%
    04:00 +8°C° 0.1 mm 2 m/S 590 mmHg 95%
    05:00 +9°C° 0.1 mm 1 m/S 590 mmHg 94%
    06:00 +8°C° 0.1 mm 2 m/S 591 mmHg 93%
    07:00 +9°C° 0.1 mm 2 m/S 591 mmHg 91%
    08:00 +9°C° 0.1 mm 2 m/S 592 mmHg 89%
    09:00 +10°C° 0.1 mm 2 m/S 592 mmHg 85%
    10:00 +12°C° 0.1 mm 2 m/S 592 mmHg 81%
    11:00 +13°C° 0.1 mm 2 m/S 592 mmHg 78%
    12:00 +12°C° 0 mm 2 m/S 591 mmHg 79%
    13:00 +12°C° 0 mm 2 m/S 591 mmHg 80%
    14:00 +12°C° 0 mm 2 m/S 590 mmHg 81%
    15:00 +10°C° 0 mm 2 m/S 590 mmHg 85%
    16:00 +10°C° 0 mm 2 m/S 590 mmHg 90%
    17:00 +9°C° 0 mm 2 m/S 589 mmHg 94%
    18:00 +10°C° 0 mm 1 m/S 590 mmHg 93%
    19:00 +10°C° 0 mm 1 m/S 590 mmHg 92%
    20:00 +10°C° 0 mm 1 m/S 591 mmHg 91%
    21:00 +9°C° 0 mm 1 m/S 590 mmHg 92%
    22:00 +9°C° 0 mm 1 m/S 590 mmHg 93%
    23:00 +9°C° 0 mm 1 m/S 590 mmHg 94%
    Mehr zeigen